This is the latest recevied weather packets stored in our database for station/object JA7ZQY-10. If no packets are shown the sender has not sent any weather packets the latest 10 day(s).
| Time | Temp. | Humidity | Pressure | Rain* | Wind** | Luminosity | Snow |
|---|---|---|---|---|---|---|---|
| 1788438968 | 21.11° C | 99% | 1009.2 hPa | 0 mm | - | - | - |
| 1788438368 | 21.11° C | 99% | 1009.1 hPa | 0 mm | - | - | - |
| 1788437769 | 21.11° C | 99% | 1009.2 hPa | 0 mm | - | - | - |
| 1788437168 | 21.11° C | 99% | 1009.4 hPa | 0 mm | - | - | - |
| 1788436569 | 21.11° C | 99% | 1009.2 hPa | 0 mm | - | - | - |
| 1788435969 | 21.11° C | 99% | 1009.4 hPa | 0 mm | - | - | - |
| 1788435368 | 21.11° C | 99% | 1009.5 hPa | 0 mm | - | - | - |
| 1788434769 | 21.11° C | 99% | 1009.4 hPa | 0 mm | - | - | - |
| 1788434168 | 21.11° C | 99% | 1009.4 hPa | 0 mm | - | - | - |
| 1788433569 | 21.11° C | 99% | 1009.3 hPa | 0 mm | - | - | - |
| 1788432968 | 21.67° C | 99% | 1009.5 hPa | 0 mm | - | - | - |
| 1788432369 | 21.67° C | 99% | 1009.5 hPa | 0 mm | - | - | - |
| 1788431769 | 21.67° C | 99% | 1009.6 hPa | 0 mm | - | - | - |
| 1788431168 | 21.11° C | 99% | 1009.2 hPa | 0 mm | - | - | - |
| 1788430568 | 21.11° C | 99% | 1009.5 hPa | 0 mm | - | - | - |
| 1788429969 | 21.11° C | 99% | 1009.2 hPa | 0 mm | - | - | - |
| 1788429369 | 21.11° C | 99% | 1008.9 hPa | 0 mm | - | - | - |
| 1788428770 | 21.67° C | 99% | 1008.9 hPa | 0 mm | - | - | - |
| 1788428168 | 21.67° C | 99% | 1008.8 hPa | 0.25 mm | - | - | - |
| 1788427568 | 21.11° C | 99% | 1008.9 hPa | 0.25 mm | - | - | - |
| 1788426968 | 21.11° C | 99% | 1008.8 hPa | 0.51 mm | - | - | - |
| 1788426367 | 21.11° C | 99% | 1009 hPa | 0.51 mm | - | - | - |
| 1788425768 | 21.11° C | 99% | 1008.6 hPa | 1.78 mm | - | - | - |
| 1788425168 | 21.11° C | 99% | 1009 hPa | 5.33 mm | - | - | - |
| 1788424568 | 21.11° C | 99% | 1008.8 hPa | 8.64 mm | - | - | - |
* Rain latest hour (hover to see other rain measurements)
** Current wind speed in m/s (hover to see current wind gust speed)